BAW386 EBBR-EGLL

Flight info

Callsign BAW386
Flight time 0h 43m
Altitude 24000
Route DCT HELEN L179 COA L608 LOGAN LOGAN2H
Aircraft A320/M-SDE3FGHIJ1RWXY/S

Departure

Time 2026-05-07 22:16
Airport Brussels Airport (EBBR)

Arrival

Time 2026-05-07 22:59
Airport London Heathrow Airport (EGLL)
Time Latitude Longitude Altitude Speed Heading
2026-05-07 21:36 50.90294 4.48630 121 ft 0 kts 335°
2026-05-07 22:04 50.90282 4.48639 121 ft 3 kts 336°
2026-05-07 22:04 50.90263 4.48651 122 ft 3 kts 339°
2026-05-07 22:04 50.90243 4.48662 121 ft 3 kts 346°
2026-05-07 22:04 50.90224 4.48667 123 ft 3 kts 11°
2026-05-07 22:05 50.90210 4.48657 131 ft 2 kts 64°
2026-05-07 22:05 50.90209 4.48655 132 ft 0 kts 65°
2026-05-07 22:08 50.90211 4.48662 124 ft 3 kts 65°
2026-05-07 22:09 50.90230 4.48730 122 ft 11 kts 66°
2026-05-07 22:09 50.90268 4.48859 124 ft 14 kts 65°
2026-05-07 22:09 50.90310 4.49006 121 ft 15 kts 65°
2026-05-07 22:09 50.90356 4.49166 124 ft 17 kts 66°
2026-05-07 22:10 50.90388 4.49278 124 ft 8 kts 65°
2026-05-07 22:10 50.90417 4.49376 124 ft 11 kts 65°
2026-05-07 22:10 50.90455 4.49505 122 ft 14 kts 65°
2026-05-07 22:10 50.90528 4.49621 121 ft 17 kts 16°
2026-05-07 22:11 50.90644 4.49669 122 ft 14 kts 14°
2026-05-07 22:11 50.90725 4.49701 123 ft 10 kts 14°
2026-05-07 22:11 50.90782 4.49725 122 ft 9 kts 14°
2026-05-07 22:11 50.90854 4.49754 120 ft 12 kts 14°
2026-05-07 22:12 50.90940 4.49810 122 ft 14 kts 37°
2026-05-07 22:12 50.90968 4.49845 122 ft 0 kts 38°
2026-05-07 22:12 50.90978 4.49857 121 ft 2 kts 38°
2026-05-07 22:13 50.90995 4.49880 121 ft 1 kts 39°
2026-05-07 22:13 50.91004 4.49892 117 ft 6 kts 39°
2026-05-07 22:13 50.91037 4.49917 120 ft 0 kts 10°
2026-05-07 22:14 50.91040 4.49918 119 ft 2 kts 11°
2026-05-07 22:14 50.91064 4.49929 120 ft 5 kts 19°
2026-05-07 22:14 50.91105 4.49946 120 ft 7 kts 359°
2026-05-07 22:14 50.91130 4.49876 117 ft 9 kts 262°
2026-05-07 22:15 50.91104 4.49764 118 ft 12 kts 245°
2026-05-07 22:15 50.91060 4.49610 118 ft 29 kts 245°
2026-05-07 22:15 50.90869 4.48951 120 ft 99 kts 245°
2026-05-07 22:15 50.90510 4.47713 123 ft 147 kts 245°
2026-05-07 22:16 50.90046 4.46069 435 ft 162 kts 246°
2026-05-07 22:16 50.89565 4.44515 1192 ft 154 kts 228°
2026-05-07 22:16 50.88633 4.43617 1571 ft 169 kts 188°
2026-05-07 22:16 50.87472 4.43174 2000 ft 181 kts 215°
2026-05-07 22:17 50.86777 4.41446 2417 ft 196 kts 262°
2026-05-07 22:17 50.87070 4.39365 2890 ft 204 kts 307°
2026-05-07 22:17 50.88210 4.38031 3364 ft 213 kts 338°
2026-05-07 22:17 50.89165 4.37351 3558 ft 233 kts 337°
2026-05-07 22:18 50.91274 4.35674 4113 ft 268 kts 333°
2026-05-07 22:18 50.94624 4.32974 5928 ft 273 kts 328°
2026-05-07 22:18 50.96104 4.31061 6809 ft 278 kts 313°
2026-05-07 22:19 50.96947 4.29463 7392 ft 280 kts 310°
2026-05-07 22:19 50.98300 4.27215 8237 ft 283 kts 315°
2026-05-07 22:19 50.99693 4.24980 9066 ft 287 kts 314°
2026-05-07 22:19 51.01106 4.22716 9867 ft 291 kts 314°
2026-05-07 22:20 51.02559 4.20397 10435 ft 305 kts 314°
2026-05-07 22:20 51.04119 4.17918 10637 ft 329 kts 314°
2026-05-07 22:20 51.05784 4.15277 11005 ft 344 kts 314°
2026-05-07 22:20 51.07492 4.12570 11661 ft 349 kts 314°
2026-05-07 22:21 51.09223 4.09828 12364 ft 352 kts 314°
2026-05-07 22:21 51.10963 4.07065 13064 ft 355 kts 314°
2026-05-07 22:21 51.12718 4.04271 13758 ft 358 kts 314°
2026-05-07 22:21 51.14483 4.01456 14431 ft 361 kts 314°
2026-05-07 22:22 51.16265 3.98609 15072 ft 364 kts 314°
2026-05-07 22:22 51.18059 3.95739 15688 ft 367 kts 313°
2026-05-07 22:22 51.19868 3.92837 16284 ft 370 kts 313°
2026-05-07 22:22 51.21701 3.89854 16884 ft 373 kts 310°
2026-05-07 22:23 51.23263 3.86548 17469 ft 375 kts 300°
2026-05-07 22:23 51.24446 3.82836 18068 ft 376 kts 290°
2026-05-07 22:23 51.25327 3.78894 18667 ft 378 kts 288°
2026-05-07 22:23 51.26198 3.74921 19256 ft 382 kts 288°
2026-05-07 22:24 51.27079 3.70901 19854 ft 385 kts 288°
2026-05-07 22:24 51.27966 3.66849 20450 ft 388 kts 288°
2026-05-07 22:24 51.28862 3.62764 21005 ft 391 kts 288°
2026-05-07 22:24 51.29767 3.58648 21536 ft 394 kts 288°
2026-05-07 22:25 51.30679 3.54509 22038 ft 397 kts 288°
2026-05-07 22:25 51.31595 3.50335 22517 ft 399 kts 288°
2026-05-07 22:25 51.32516 3.46129 22984 ft 402 kts 288°
2026-05-07 22:25 51.33437 3.41896 23446 ft 404 kts 288°
2026-05-07 22:26 51.34360 3.37637 23888 ft 407 kts 288°
2026-05-07 22:26 51.35294 3.33350 24071 ft 408 kts 288°
2026-05-07 22:26 51.36285 3.29028 24110 ft 419 kts 289°
2026-05-07 22:26 51.37327 3.24654 24109 ft 422 kts 289°
2026-05-07 22:27 51.38388 3.20273 24110 ft 423 kts 290°
2026-05-07 22:27 51.39449 3.15888 24111 ft 423 kts 289°
2026-05-07 22:27 51.40506 3.11489 24110 ft 423 kts 289°
2026-05-07 22:27 51.41552 3.07090 24110 ft 423 kts 289°
2026-05-07 22:28 51.42587 3.02688 24110 ft 423 kts 289°
2026-05-07 22:28 51.43618 2.98283 24109 ft 422 kts 289°
2026-05-07 22:28 51.44648 2.93869 24109 ft 422 kts 289°
2026-05-07 22:28 51.45679 2.89452 24107 ft 422 kts 289°
2026-05-07 22:29 51.46709 2.85044 24108 ft 422 kts 289°
2026-05-07 22:29 51.47739 2.80630 24106 ft 422 kts 289°
2026-05-07 22:29 51.48765 2.76224 24106 ft 422 kts 289°
2026-05-07 22:29 51.49790 2.71805 24106 ft 422 kts 289°
2026-05-07 22:30 51.50812 2.67390 24107 ft 422 kts 289°
2026-05-07 22:30 51.51830 2.62976 24108 ft 422 kts 289°
2026-05-07 22:30 51.52849 2.58553 24108 ft 422 kts 289°
2026-05-07 22:30 51.53864 2.54129 24109 ft 422 kts 289°
2026-05-07 22:31 51.54880 2.49698 24109 ft 422 kts 289°
2026-05-07 22:31 51.55894 2.45270 24110 ft 422 kts 289°
2026-05-07 22:31 51.56905 2.40845 24110 ft 422 kts 289°
2026-05-07 22:31 51.57914 2.36415 24109 ft 421 kts 288°
2026-05-07 22:32 51.58920 2.31987 24108 ft 421 kts 288°
2026-05-07 22:32 51.59925 2.27565 24107 ft 421 kts 288°
2026-05-07 22:32 51.60931 2.23137 24104 ft 421 kts 288°
2026-05-07 22:32 51.61933 2.18711 24104 ft 421 kts 288°
2026-05-07 22:33 51.62932 2.14297 24104 ft 421 kts 288°
2026-05-07 22:33 51.63934 2.09861 24104 ft 421 kts 288°
2026-05-07 22:33 51.64932 2.05435 24103 ft 421 kts 288°
2026-05-07 22:33 51.65930 2.01001 24103 ft 421 kts 288°
2026-05-07 22:34 51.66925 1.96566 24104 ft 421 kts 288°
2026-05-07 22:34 51.67915 1.92127 24103 ft 421 kts 288°
2026-05-07 22:34 51.68900 1.87691 24102 ft 421 kts 288°
2026-05-07 22:34 51.69884 1.83252 24102 ft 421 kts 288°
2026-05-07 22:35 51.70870 1.78808 24102 ft 421 kts 288°
2026-05-07 22:35 51.71854 1.74366 24101 ft 421 kts 288°
2026-05-07 22:35 51.72836 1.69924 24101 ft 421 kts 288°
2026-05-07 22:35 51.73783 1.65457 24100 ft 420 kts 284°
2026-05-07 22:36 51.74343 1.60848 24101 ft 418 kts 275°
2026-05-07 22:36 51.74427 1.56197 24103 ft 409 kts 266°
2026-05-07 22:36 51.74157 1.51665 23720 ft 403 kts 263°
2026-05-07 22:36 51.73860 1.47125 22570 ft 412 kts 263°
2026-05-07 22:37 51.73559 1.42536 21923 ft 408 kts 263°
2026-05-07 22:37 51.73260 1.37973 21384 ft 401 kts 263°
2026-05-07 22:37 51.72970 1.33530 20852 ft 395 kts 263°
2026-05-07 22:37 51.72687 1.29146 20343 ft 391 kts 263°
2026-05-07 22:38 51.72403 1.24811 19835 ft 387 kts 263°
2026-05-07 22:38 51.72120 1.20518 19335 ft 384 kts 263°
2026-05-07 22:38 51.71836 1.16250 18833 ft 381 kts 263°
2026-05-07 22:38 51.71553 1.12060 18311 ft 378 kts 263°
2026-05-07 22:39 51.71265 1.07831 17793 ft 375 kts 263°
2026-05-07 22:39 51.70981 1.03670 17253 ft 372 kts 263°
2026-05-07 22:39 51.70695 0.99543 16712 ft 369 kts 263°
2026-05-07 22:39 51.70411 0.95449 16161 ft 366 kts 263°
2026-05-07 22:40 51.70130 0.91384 15492 ft 365 kts 263°
2026-05-07 22:40 51.69848 0.87306 14773 ft 367 kts 263°
2026-05-07 22:40 51.69562 0.83166 14056 ft 367 kts 263°
2026-05-07 22:40 51.69278 0.79077 13343 ft 367 kts 262°
2026-05-07 22:41 51.68991 0.74997 12635 ft 366 kts 262°
2026-05-07 22:41 51.68703 0.70935 11931 ft 365 kts 262°
2026-05-07 22:41 51.68414 0.66884 11399 ft 359 kts 262°
2026-05-07 22:41 51.68135 0.62985 11269 ft 342 kts 262°
2026-05-07 22:42 51.67868 0.59257 11141 ft 328 kts 262°
2026-05-07 22:42 51.67611 0.55689 11014 ft 315 kts 262°
2026-05-07 22:42 51.67359 0.52208 10886 ft 303 kts 262°
2026-05-07 22:42 51.67116 0.48892 10740 ft 293 kts 262°
2026-05-07 22:43 51.66876 0.45661 10439 ft 290 kts 262°
2026-05-07 22:43 51.66636 0.42430 10054 ft 290 kts 262°
2026-05-07 22:43 51.66395 0.39212 9635 ft 291 kts 262°
2026-05-07 22:43 51.66157 0.36009 9365 ft 286 kts 262°
2026-05-07 22:44 51.65926 0.32849 8853 ft 283 kts 263°
2026-05-07 22:44 51.65694 0.29710 8239 ft 282 kts 262°
2026-05-07 22:44 51.65459 0.26570 7882 ft 281 kts 262°
2026-05-07 22:44 51.65223 0.23443 7435 ft 284 kts 262°
2026-05-07 22:45 51.64991 0.20348 7302 ft 274 kts 263°
2026-05-07 22:45 51.64759 0.17294 7173 ft 272 kts 262°
2026-05-07 22:45 51.64523 0.14265 7047 ft 273 kts 262°
2026-05-07 22:45 51.64287 0.11230 6925 ft 273 kts 262°
2026-05-07 22:46 51.64050 0.08193 6792 ft 273 kts 262°
2026-05-07 22:46 51.63815 0.05172 6670 ft 272 kts 262°
2026-05-07 22:46 51.63580 0.02151 6546 ft 272 kts 262°
2026-05-07 22:46 51.63345 -0.00863 6419 ft 271 kts 262°
2026-05-07 22:47 51.63186 -0.02893 6335 ft 271 kts 262°
2026-05-07 22:47 51.62902 -0.06704 6179 ft 271 kts 262°
2026-05-07 22:47 51.62684 -0.09714 6053 ft 271 kts 262°
2026-05-07 22:47 51.62536 -0.11748 5969 ft 271 kts 262°
2026-05-07 22:48 51.62318 -0.14741 5843 ft 270 kts 262°
2026-05-07 22:48 51.62098 -0.17756 5717 ft 270 kts 262°
2026-05-07 22:48 51.61877 -0.20802 5587 ft 270 kts 262°
2026-05-07 22:48 51.61654 -0.23833 5466 ft 269 kts 262°
2026-05-07 22:49 51.61434 -0.26843 5341 ft 269 kts 262°
2026-05-07 22:49 51.61218 -0.29807 5210 ft 268 kts 262°
2026-05-07 22:49 51.61003 -0.32769 5082 ft 264 kts 262°
2026-05-07 22:49 51.60800 -0.35629 4948 ft 248 kts 262°
2026-05-07 22:50 51.60637 -0.38283 4819 ft 229 kts 267°
2026-05-07 22:50 51.60655 -0.40761 4690 ft 218 kts 270°
2026-05-07 22:50 51.60718 -0.43183 4568 ft 215 kts 271°
2026-05-07 22:50 51.60787 -0.45580 4442 ft 215 kts 271°
2026-05-07 22:51 51.60856 -0.47974 4312 ft 214 kts 271°
2026-05-07 22:51 51.60930 -0.50368 4190 ft 214 kts 270°
2026-05-07 22:51 51.60879 -0.52750 4065 ft 213 kts 263°
2026-05-07 22:51 51.60740 -0.55113 3939 ft 212 kts 262°
2026-05-07 22:52 51.60589 -0.57472 3813 ft 212 kts 262°
2026-05-07 22:52 51.60436 -0.59827 3689 ft 212 kts 262°
2026-05-07 22:52 51.60283 -0.62181 3560 ft 211 kts 262°
2026-05-07 22:52 51.60129 -0.64529 3443 ft 211 kts 262°
2026-05-07 22:53 51.59976 -0.66874 3313 ft 211 kts 262°
2026-05-07 22:53 51.59811 -0.69210 3186 ft 210 kts 257°
2026-05-07 22:53 51.59170 -0.71238 3061 ft 204 kts 221°
2026-05-07 22:53 51.57980 -0.72417 2923 ft 202 kts 194°
2026-05-07 22:54 51.56604 -0.72513 2725 ft 199 kts 166°
2026-05-07 22:54 51.55310 -0.71931 2610 ft 188 kts 163°
2026-05-07 22:54 51.54055 -0.71363 2514 ft 183 kts 164°
2026-05-07 22:54 51.52857 -0.70824 2484 ft 180 kts 164°
2026-05-07 22:55 51.51624 -0.70273 2487 ft 181 kts 164°
2026-05-07 22:55 51.50390 -0.69719 2489 ft 192 kts 163°
2026-05-07 22:55 51.49162 -0.68802 2410 ft 194 kts 144°
2026-05-07 22:55 51.48239 -0.67248 2291 ft 194 kts 123°
2026-05-07 22:56 51.47745 -0.65315 2103 ft 185 kts 102°
2026-05-07 22:56 51.47680 -0.63330 1882 ft 170 kts 91°
2026-05-07 22:56 51.47452 -0.61595 1698 ft 149 kts 117°
2026-05-07 22:56 51.46957 -0.60207 1550 ft 141 kts 112°
2026-05-07 22:57 51.46674 -0.58663 1332 ft 145 kts 104°
2026-05-07 22:57 51.46496 -0.57077 1105 ft 145 kts 98°
2026-05-07 22:57 51.46430 -0.55479 926 ft 145 kts 90°
2026-05-07 22:57 51.46461 -0.53880 757 ft 139 kts 90°
2026-05-07 22:58 51.46456 -0.52319 571 ft 140 kts 92°
2026-05-07 22:58 51.46461 -0.50744 390 ft 142 kts 89°
2026-05-07 22:58 51.46474 -0.49136 217 ft 143 kts 90°
2026-05-07 22:58 51.46483 -0.47545 97 ft 129 kts 90°
2026-05-07 22:59 51.46486 -0.46307 90 ft 63 kts 89°
2026-05-07 22:59 51.46518 -0.45818 85 ft 38 kts 64°
2026-05-07 22:59 51.46650 -0.45688 86 ft 17 kts 326°
2026-05-07 22:59 51.46661 -0.45871 88 ft 18 kts 269°
2026-05-07 23:00 51.46659 -0.46092 87 ft 21 kts 270°
2026-05-07 23:00 51.46659 -0.46344 88 ft 24 kts 270°
2026-05-07 23:00 51.46659 -0.46628 90 ft 27 kts 269°
2026-05-07 23:00 51.46657 -0.46946 88 ft 29 kts 269°
2026-05-07 23:01 51.46655 -0.47288 86 ft 32 kts 270°
2026-05-07 23:01 51.46655 -0.47589 86 ft 20 kts 270°
2026-05-07 23:01 51.46657 -0.47819 91 ft 19 kts 282°
2026-05-07 23:01 51.46712 -0.47866 88 ft 9 kts 356°
2026-05-07 23:02 51.46782 -0.47867 86 ft 12 kts 359°
2026-05-07 23:02 51.46873 -0.47870 88 ft 15 kts 359°
2026-05-07 23:02 51.46906 -0.47871 90 ft 4 kts 353°
2026-05-07 23:02 51.46914 -0.47916 89 ft 6 kts 271°
2026-05-07 23:03 51.46914 -0.47995 86 ft 8 kts 270°
2026-05-07 23:03 51.46914 -0.48034 86 ft 2 kts 269°
2026-05-07 23:03 51.46913 -0.48038 89 ft 0 kts 269°